Погода Зеббугна неделю

Аура, Мальта

24 - 30 июля
  • 24июля
    Сегодня
    +24°
    +29°
    Ясно и безоблачно
    ВремяПогодаТемператураВлажностьДавлениеВетер, м/сВероятность осадков
    02:00Ясно и безоблачно+26°C89 %753 мм5.3 м/с2 %
    05:00Ясно и безоблачно+26°C86 %753 мм6.5 м/с2 %
    08:00Ясно и безоблачно+26°C89 %753 мм6.7 м/с2 %
    11:00Ясно и безоблачно+27°C87 %754 мм5.7 м/с2 %
    14:00Ясно и безоблачно+28°C89 %753 мм6.1 м/с2 %
    17:00Ясно и безоблачно+28°C88 %752 мм5.8 м/с2 %
    20:00Ясно и безоблачно+27°C86 %752 мм7.0 м/с2 %
    23:00Ясно и безоблачно+26°C88 %752 мм7.2 м/с2 %
  • 25июля
    Четверг
    +24°
    +28°
    Ясно и безоблачно
    ВремяПогодаТемператураВлажностьДавлениеВетер, м/сВероятность осадков
    02:00Ясно и безоблачно+25°C88 %751 мм8.6 м/с2 %
    05:00Ясно и безоблачно+25°C89 %751 мм7.5 м/с2 %
    08:00Ясно и безоблачно+26°C91 %751 мм6.4 м/с2 %
    11:00Ясно и безоблачно+27°C89 %752 мм5.4 м/с2 %
    14:00Ясно и безоблачно+27°C86 %751 мм6.0 м/с2 %
    17:00Ясно и безоблачно+28°C86 %750 мм5.9 м/с2 %
    20:00Практически безоблачно+27°C86 %750 мм4.6 м/с2 %
    23:00Ясно и безоблачно+25°C84 %751 мм2.4 м/с2 %
  • 26июля
    Пятница
    +24°
    +28°
    Ясно и безоблачно
    ВремяПогодаТемператураВлажностьДавлениеВетер, м/сВероятность осадков
    02:00Ясно и безоблачно+25°C86 %751 мм3.3 м/с2 %
    05:00Ясно и безоблачно+25°C87 %751 мм2.1 м/с2 %
    08:00Ясно и безоблачно+26°C86 %751 мм1.5 м/с2 %
    11:00Ясно и безоблачно+27°C85 %752 мм1.5 м/с2 %
    14:00Ясно и безоблачно+27°C85 %753 мм1.2 м/с2 %
    17:00Ясно и безоблачно+27°C84 %752 мм2.5 м/с2 %
    20:00Ясно и безоблачно+27°C79 %753 мм3.0 м/с2 %
    23:00Ясно и безоблачно+26°C77 %754 мм1.9 м/с2 %
  • 27июля
    Суббота
    +25°
    +29°
    Ясно и безоблачно
    ВремяПогодаТемператураВлажностьДавлениеВетер, м/сВероятность осадков
    02:00Ясно и безоблачно+25°C80 %754 мм1.3 м/с2 %
    05:00Ясно и безоблачно+25°C82 %753 мм1.1 м/с2 %
    08:00Ясно и безоблачно+27°C83 %754 мм0.5 м/с2 %
    11:00Ясно и безоблачно+27°C83 %756 мм0.5 м/с2 %
    14:00Ясно и безоблачно+28°C82 %755 мм1.2 м/с3 %
    17:00Ясно и безоблачно+28°C81 %755 мм1.9 м/с2 %
    20:00Ясно и безоблачно+28°C78 %755 мм0.7 м/с2 %
    23:00Ясно и безоблачно+27°C75 %756 мм1.2 м/с2 %
Мы используем cookies
Соглашаюсь